Flag for Russia Weather past 2 weeks in Astrakhan, Russia

Now
73 °F

Clear.


Feels Like: 76 °F
Forecast: 70 / 89 °F
Wind: 1 mph from Northeast

Location: Astrakhan

Current Time: Sep 4, 2015 at 12:53:42 AM

Latest Report: Sep 4, 2015 at 12:00 AM


Visibility: 10 mi

Pressure: 29.83 "Hg

Humidity: 69%

Dew point: 63 °F

Location of AstrakhanLocation

Historic Weather in Astrakhan — Graph

°F

Astrakhan temperature yesterday

Maximum temperature yesterday: 93 °F (at 3:00 PM)
Minimum temperature yesterday: 63 °F (at 12:30 AM)
Average temperature yesterday: 77 °F

Past Weeks' High & Low Weather Summary

 TemperatureHumidityPressure
High93 °F (Aug 30, 1:00 PM)88% (Aug 28, 4:30 AM)30.18 "Hg (Aug 28, 4:30 AM)
Low52 °F (Aug 26, 3:30 AM)13% (Aug 24, 9:00 PM)29.77 "Hg (Sep 3, 2:30 PM)
Average71 °F44%30.01 "Hg
* Reported Aug 19 11:30 PM — Sep 3 11:30 PM, Astrakhan, Weather by CustomWeather, © 2015

Note: Actual official high and low records may vary slightly from our data, if they occured in-between our weather recording intervals... More about our weather records

Advertising

Astrakhan weather history for previous 24 hours

 ConditionsComfort  
Time TempWeatherWind HumidityBarometerVisibility
11:30 PM
Thu, Sep 3
70 °FClear.No wind73%29.83 "Hg10 mi
11:00 PM73 °FClear.No wind69%29.83 "Hg10 mi
10:30 PM72 °FClear.1 mph69%29.83 "Hg10 mi
10:00 PM72 °FClear.No wind69%29.83 "Hg10 mi
9:30 PM73 °FClear.No wind65%29.83 "Hg10 mi
9:00 PM73 °FClear.No wind65%29.83 "Hg10 mi
8:30 PM79 °FClear.3 mph54%29.83 "Hg10 mi
8:00 PM81 °FClear.6 mph54%29.83 "Hg10 mi
7:30 PM82 °FClear.6 mph45%29.83 "Hg10 mi
7:00 PM84 °FSunny.6 mph40%29.80 "Hg10 mi
6:30 PM86 °FSunny.6 mph33%29.80 "Hg10 mi
6:00 PM86 °FSunny.3 mph31%29.80 "Hg10 mi
5:30 PM90 °FSunny.6 mph29%29.77 "Hg10 mi
5:00 PM91 °FSunny.6 mph28%29.77 "Hg10 mi
4:30 PM91 °FSunny.8 mph26%29.77 "Hg10 mi
4:00 PM91 °FSunny.13 mph26%29.77 "Hg10 mi
3:30 PM93 °FSunny.10 mph23%29.77 "Hg10 mi
3:00 PM93 °FSunny.6 mph26%29.77 "Hg10 mi
2:30 PM91 °FPassing clouds.6 mph28%29.77 "HgN/A
2:00 PM88 °FSunny.8 mph31%29.80 "Hg10 mi
1:30 PM88 °FSunny.8 mph31%29.80 "Hg10 mi
1:00 PM90 °FPassing clouds.10 mph31%29.80 "HgN/A
12:30 PM91 °FPassing clouds.10 mph28%29.80 "HgN/A
12:00 PM90 °FPassing clouds.8 mph29%29.80 "HgN/A
11:30 AM90 °FPassing clouds.8 mph29%29.80 "HgN/A
11:00 AM88 °FPassing clouds.8 mph33%29.80 "HgN/A
10:30 AM84 °FPassing clouds.8 mph43%29.83 "HgN/A
10:00 AM84 °FSunny.6 mph37%29.83 "Hg10 mi
9:30 AM82 °FPassing clouds.6 mph45%29.83 "HgN/A
9:00 AM79 °FPassing clouds.6 mph54%29.83 "HgN/A
8:30 AM75 °FPassing clouds.6 mph61%29.83 "HgN/A
8:00 AM73 °FSunny.3 mph69%29.83 "Hg10 mi
7:30 AM72 °FPassing clouds.3 mph69%29.83 "HgN/A
7:00 AM68 °FSunny.3 mph78%29.83 "Hg10 mi
6:30 AM66 °FSunny.1 mph78%29.86 "Hg10 mi
6:00 AM64 °FClear.3 mph78%29.83 "Hg10 mi
5:30 AM64 °FPassing clouds.1 mph78%29.86 "HgN/A
5:00 AM63 °FPartly cloudy.No wind83%29.86 "HgN/A
4:30 AM63 °FPartly cloudy.3 mph83%29.86 "HgN/A
4:00 AM66 °FClear.1 mph78%29.86 "Hg10 mi
3:30 AM63 °FClear.3 mph83%29.89 "Hg10 mi
3:00 AM63 °FClear.No wind77%29.86 "Hg10 mi
2:30 AM63 °FClear.6 mph83%29.86 "Hg10 mi
2:00 AM63 °FClear.3 mph77%29.86 "Hg10 mi
1:30 AM63 °FClear.3 mph77%29.86 "Hg10 mi
12:30 AM63 °FClear.3 mph77%29.89 "Hg10 mi
12:00 AM64 °FPassing clouds.6 mph78%29.89 "HgN/A
Weather by CustomWeather, © 2015

See weather overviewHow to use our weather pages